Tracking 33195 objects as of 8-Feb-2026
HD Live streaming from Space Station
objects crossing your sky now

FLOCK 4BE 13

Track FLOCK 4BE 13 now!
10-day predictions
FLOCK 4BE 13 is classified as:


NORAD ID: 60512
Int'l Code: 2024-149AW
Perigee: 457.0 km
Apogee: 463.7 km
Inclination: 97.4 °
Period: 93.7 minutes
Semi major axis: 6831 km
RCS: Unknown
Launch date: August 16, 2024
Source: United States (US)
Launch site: AIR FORCE WESTERN TEST RANGE (AFWTR)
Your satellite tracking list
Your tracking list is empty




NASA's NSSDC Master Catalog

Two Line Element Set (TLE):
1 60512U 24149AW  26039.17189781  .00020423  00000-0  55468-3 0  9998
2 60512  97.3806 122.5876 0004951  24.8417 335.3065 15.37600592 82514
Source of the keplerian elements: AFSPC